Location: Unspecified
(0.0000°N, 0.0000°E)
Time: 23:26:28
(UTC+00:00)

Tiros 1 - Visible Passes

Search period start: 28 May 2022 00:00
Search period end: 07 June 2022 00:00
Orbit: 629 x 663 km, 48.4° (Epoch: 28 May)

Date Brightness Start Highest point End Pass type
(mag) Time Alt. Az. Time Alt. Az. Time Alt. Az.
29 May 9.4 19:37:09 10° SSW 19:37:40 13° SSW 19:37:40 13° SSW visible
30 May 9.0 18:24:22 10° SE 18:25:04 10° SE 18:25:46 10° ESE visible
30 May 8.6 20:02:34 10° SW 20:05:03 30° WSW 20:05:03 30° WSW visible
31 May 7.7 18:46:38 10° SSW 18:50:50 33° SE 18:55:00 10° ENE visible
31 May 9.7 20:29:39 10° W 20:32:49 18° NW 20:33:46 17° NW visible
01 Jun 7.3 19:11:51 10° SW 19:16:30 70° NW 19:21:05 10° NNE visible
02 Jun 9.7 19:38:41 10° W 19:42:10 21° NW 19:45:37 10° N visible
03 Jun 7.3 18:21:10 10° SW 18:25:51 82° NW 18:30:28 10° NE visible
04 Jun 10.3 04:53:53 10° NNE 04:56:29 15° NE 04:59:07 10° E visible
04 Jun 9.7 18:47:45 10° WSW 18:51:30 24° NW 18:55:13 10° N visible
05 Jun 8.4 05:17:40 10° NNW 05:22:11 46° NE 05:26:45 10° SE visible
06 Jun 10.3 04:03:46 10° NNE 04:05:48 13° NE 04:07:51 10° ENE visible
